Theta_e
308 309 309 308 307 305 305 305 304 303 302 302 302 302 303 304 305 308 308 309 317 316 316 314 311 311 313 313 315 317 315 316 317 320 320 321 320 322 323 325 329 330 328 329 328
306 309 310 310 308 306 305 306 306 304 303 302 302 302 303 304 307 310 310 315 318 318 311 308 307 309 313 315 316 314 312 315 316 317 318 319 320 321 323 324 326 327 328 328 328
304 308 311 311 309 306 305 306 307 305 303 302 302 302 303 304 314 321 321 317 311 311 308 312 315 314 311 312 315 314 314 314 316 318 319 319 319 320 322 323 326 327 328 328 328
307 308 310 311 309 305 306 306 304 303 302 302 302 302 303 305 319 317 315 310 311 309 313 314 314 313 311 310 313 311 313 315 316 317 318 317 319 319 320 322 322 325 327 327 328
309 309 310 311 308 305 304 303 303 303 302 302 302 302 303 308 309 319 317 312 310 315 316 317 317 318 310 310 311 311 311 314 315 317 318 318 318 318 319 319 320 321 321 323 326
310 310 310 312 306 305 304 305 305 303 302 302 302 301 304 310 316 319 317 314 313 315 315 316 315 315 314 313 312 313 313 314 315 315 314 314 315 316 318 318 318 318 319 320 323
309 311 311 312 306 306 307 308 308 308 307 302 302 302 304 306 318 317 316 315 315 316 316 315 314 315 314 311 314 313 312 310 313 315 314 315 314 314 317 317 318 318 318 319 320
309 310 311 312 306 308 308 309 309 308 309 306 303 305 307 312 313 316 316 316 315 315 315 314 314 314 314 313 312 312 310 311 311 314 315 315 315 314 317 317 317 318 318 319 320
308 309 312 310 307 310 310 309 311 310 310 310 309 314 314 316 317 314 314 316 315 315 315 314 314 313 313 310 308 309 310 311 312 313 313 313 314 314 317 316 316 317 318 318 318
306 307 312 308 308 311 312 313 312 317 313 315 310 314 316 319 317 314 313 314 314 314 314 314 313 310 307 307 309 311 311 311 312 314 314 313 312 312 315 315 315 316 317 318 318
307 305 310 307 309 313 316 316 317 318 314 315 315 315 317 318 317 314 313 313 314 314 312 313 310 309 310 309 312 312 312 312 313 314 313 312 311 311 314 315 315 316 317 317 318
310 307 306 307 309 312 314 316 315 316 314 315 315 316 317 319 320 315 315 314 314 312 311 310 310 311 312 313 313 313 313 312 312 313 314 312 312 312 313 314 316 315 316 317 317
309 309 306 308 314 316 316 317 316 316 314 314 315 317 316 317 319 316 315 315 313 312 311 310 312 314 314 314 314 313 312 312 313 314 313 313 313 313 313 315 316 316 317 317 317
308 310 309 306 314 316 315 317 314 315 313 317 317 318 317 317 315 315 315 315 313 312 311 311 312 314 313 314 314 312 313 314 314 313 312 314 313 312 313 313 314 315 316 317 317
310 308 310 309 308 315 316 316 315 316 319 322 318 316 317 316 315 316 315 315 313 313 312 312 313 313 313 314 314 314 314 313 313 312 310 312 311 312 313 313 313 313 314 316 317
310 308 309 311 310 317 316 315 315 320 325 321 316 314 312 314 314 315 315 315 315 312 312 312 314 313 313 314 314 314 313 312 311 309 311 310 311 313 312 312 312 314 317 317 317
315 310 309 311 310 315 316 316 317 321 322 322 319 316 315 315 315 315 314 313 312 312 312 313 313 314 314 314 314 313 312 312 314 312 314 311 312 313 312 314 316 315 316 316 317
315 311 312 317 308 316 316 315 320 320 321 320 317 317 317 315 315 315 314 312 311 312 313 315 315 316 316 315 314 316 315 316 320 316 318 317 318 315 315 315 317 316 316 316 317
315 311 319 311 315 315 316 317 318 321 320 319 315 316 315 315 315 314 313 313 314 314 315 315 315 315 316 316 314 314 315 315 317 319 321 319 317 315 314 316 316 314 314 315 316
315 311 319 319 317 316 315 317 317 317 317 316 314 314 314 314 313 313 314 314 315 315 312 313 314 315 315 316 316 315 315 316 316 322 323 319 318 316 314 315 315 316 315 315 315
314 310 320 320 319 316 313 316 317 318 318 316 315 314 314 314 313 314 314 315 315 314 312 312 312 314 316 316 315 313 313 315 313 314 319 316 316 313 314 314 314 313 315 316 316
311 310 318 319 315 314 315 316 317 316 315 315 315 313 313 313 314 314 314 314 314 313 312 312 313 315 316 314 314 313 315 314 313 317 317 317 314 312 313 312 312 314 315 315 316
310 309 314 317 315 312 313 313 314 315 314 315 316 313 312 313 313 314 315 315 313 312 314 313 310 313 313 311 310 313 313 313 313 312 312 314 312 311 311 311 311 312 315 315 315
309 310 313 312 312 310 311 313 314 314 315 314 313 312 312 312 312 313 311 313 311 311 313 312 311 312 314 313 310 313 313 311 311 307 312 313 312 311 312 312 311 313 315 315 315
309 309 308 309 309 310 310 312 315 315 313 312 312 312 311 311 311 311 311 310 310 310 308 309 311 312 312 312 312 312 311 310 309 310 312 312 312 311 314 314 314 315 315 316 315
309 308 308 308 309 310 310 312 314 313 310 312 312 312 311 310 310 310 307 307 308 308 307 305 308 307 308 312 312 310 310 310 310 310 312 315 314 314 314 314 314 315 315 316 315
307 307 306 308 309 309 310 312 312 311 309 310 311 311 311 310 307 307 307 307 306 306 306 305 304 306 307 309 311 310 311 314 315 316 316 317 315 315 315 315 314 314 315 314 314
Wind_Speed
14 14 14 11 8 7 8 8 7 7 7 7 8 9 10 12 11 14 15 7 4 3 7 8 10 9 9 10 16 9 2 5 6 7 8 29 6 24 27 18 12 28 3 16 13
14 12 13 12 12 8 6 6 6 6 6 7 7 9 11 13 15 13 5 8 4 5 10 7 5 8 7 5 8 7 4 8 7 6 8 26 15 19 11 18 8 14 17 10 11
16 13 10 11 11 10 8 7 6 7 6 6 7 7 9 12 12 4 4 3 2 6 4 4 2 5 8 13 10 5 6 4 12 22 27 24 22 22 12 7 12 18 23 18 12
16 14 12 9 9 9 8 8 7 7 7 7 7 7 8 7 2 2 4 5 4 1 6 5 2 2 3 4 10 5 13 19 22 29 25 15 30 22 16 12 10 18 26 28 16
16 12 11 10 8 7 8 7 6 6 6 7 7 7 7 4 9 4 2 1 4 4 2 3 7 9 4 4 8 4 7 21 29 33 34 34 24 23 27 15 14 12 14 23 30
17 13 10 8 8 7 6 5 5 5 5 6 6 7 5 4 4 5 1 6 7 5 2 8 4 9 5 2 0 6 11 15 13 20 14 9 13 10 26 17 13 16 16 20 23
20 15 11 9 7 4 4 4 5 5 5 5 6 7 11 16 5 6 1 3 6 4 8 8 9 7 9 7 8 13 6 9 5 7 5 10 10 12 25 25 31 25 21 19 20
21 17 13 9 6 5 4 4 5 3 4 4 6 8 9 3 11 12 10 4 4 4 8 8 5 7 3 9 9 4 3 4 6 5 11 3 18 14 31 27 31 35 26 21 19
23 18 13 9 6 6 6 5 5 4 3 4 5 6 9 8 11 15 15 13 10 14 12 6 7 6 6 2 5 3 4 7 9 6 7 6 16 12 27 28 29 33 33 27 21
25 19 13 9 5 6 7 7 10 9 7 6 7 7 7 3 8 10 11 11 13 5 6 8 5 0 3 4 4 6 4 5 5 5 4 5 9 9 24 22 27 31 23 15 17
26 19 13 8 4 5 7 6 7 1 8 12 13 15 16 2 12 7 11 16 16 5 3 10 2 7 13 10 11 9 10 12 5 7 4 6 10 10 14 9 13 16 15 13 13
27 20 13 6 5 4 8 8 7 11 13 20 24 28 26 17 9 12 11 9 8 6 3 4 7 16 10 12 12 13 14 8 7 5 5 10 13 10 6 9 15 17 15 15 16
28 21 14 6 4 5 10 11 13 11 7 18 17 23 26 19 18 20 15 19 6 6 6 8 10 11 10 12 10 11 6 4 7 6 4 4 6 6 7 9 16 19 20 22 26
27 24 15 8 6 7 5 12 12 12 3 6 6 5 12 20 6 22 20 20 6 11 9 7 14 6 9 7 4 5 8 10 6 3 7 3 11 5 7 10 7 19 26 29 32
28 26 17 12 8 6 11 7 9 5 3 3 5 5 9 15 3 6 18 20 14 10 6 11 6 10 10 11 10 11 12 12 10 6 4 4 7 3 3 13 16 16 29 35 32
32 29 23 13 12 5 10 11 6 4 4 3 4 4 5 12 9 3 13 21 14 6 5 12 16 5 10 14 12 15 8 5 4 2 9 6 7 12 5 9 7 8 24 28 27
35 30 22 13 9 2 8 4 4 3 6 7 3 2 4 3 7 7 6 6 8 3 7 10 12 13 12 5 6 4 5 5 7 5 12 5 7 14 6 6 8 11 22 19 25
38 30 17 9 6 3 3 3 2 4 4 11 8 4 1 5 5 7 6 3 7 3 2 5 4 2 5 4 4 2 4 2 6 4 10 5 6 6 4 8 9 19 25 15 5
40 29 8 3 12 6 3 2 5 3 6 7 5 4 5 8 2 7 3 3 5 1 4 3 4 4 3 4 4 4 4 11 8 7 5 4 7 7 10 11 7 15 12 4 15
34 27 3 8 9 6 3 4 4 4 12 6 2 2 3 5 5 5 3 3 7 6 2 3 5 1 6 4 3 2 1 3 2 3 5 4 4 6 7 6 10 10 12 13 11
25 12 1 9 10 4 2 5 6 13 14 5 3 3 3 2 3 4 4 8 5 6 5 5 1 4 2 4 4 3 2 5 3 3 3 3 5 6 5 5 8 10 15 2 3
13 3 4 11 1 3 2 4 8 14 15 4 3 5 5 3 3 3 4 3 18 9 5 3 3 2 5 7 7 3 5 4 4 3 3 3 8 17 17 10 8 18 14 19 13
22 7 5 11 2 2 7 7 10 11 12 7 4 6 6 4 4 3 6 11 13 8 5 4 3 4 6 5 5 3 4 4 2 3 6 4 7 11 8 13 20 23 28 29 22
8 4 7 6 5 5 6 5 10 14 14 11 3 3 3 4 3 4 7 4 9 7 9 4 3 6 5 5 4 6 9 6 8 3 6 10 21 20 20 14 15 19 26 32 27
3 3 6 3 3 7 6 8 10 9 9 15 7 9 7 4 5 6 4 5 5 2 3 3 4 3 6 7 8 11 13 13 10 12 8 16 17 15 6 10 9 14 16 19 29
5 5 9 11 10 10 7 8 10 13 10 9 9 14 14 8 7 11 4 5 5 1 2 1 3 4 11 8 9 12 12 14 15 15 7 6 8 5 11 14 14 16 17 14 6
4 8 6 6 4 1 3 5 9 16 10 9 13 12 13 14 10 18 21 15 11 6 4 3 3 1 4 3 6 6 3 4 4 5 2 3 4 10 10 8 15 13 8 11 10
Wind_Direction
343 330 321 315 311 318 321 321 319 314 310 306 305 308 313 308 295 281 272 237 187 213 278 264 246 228 213 235 227 227 155 233 230 237 264 282 286 296 301 297 225 235 210 148 162
347 341 329 321 316 313 305 308 304 301 297 294 298 310 318 316 309 284 271 220 255 280 296 266 195 198 219 240 229 180 187 229 221 232 254 276 277 288 297 284 271 236 239 160 165
344 340 337 333 327 319 315 308 297 285 277 275 285 303 313 323 324 356 131 119 340 289 271 180 244 256 234 234 225 216 223 231 259 257 262 268 281 287 247 274 254 250 252 247 182
346 340 337 332 329 327 323 316 306 297 282 265 267 283 301 312 244 56 91 62 47 135 156 201 250 219 200 222 248 237 266 244 256 260 260 263 275 277 238 231 263 273 263 246 187
349 344 337 331 332 333 330 328 320 309 294 280 276 280 300 286 254 272 223 90 130 132 179 268 297 280 290 267 306 191 255 261 255 257 261 264 263 265 269 257 246 242 261 277 258
356 348 339 333 331 334 337 340 331 319 304 289 281 279 284 270 199 155 186 228 169 172 351 316 336 336 267 280 183 314 301 285 297 270 252 249 271 263 273 282 280 282 275 271 275
3 354 344 335 332 339 339 342 326 308 300 294 281 279 273 250 163 196 168 85 170 224 291 298 334 2 348 335 322 315 325 319 285 285 275 289 285 256 280 292 292 284 278 262 254
8 1 350 341 338 343 346 345 356 324 296 293 284 290 263 85 206 207 227 220 222 232 254 283 303 311 327 311 330 328 4 321 278 304 282 151 267 273 273 269 274 277 277 255 247
6 3 357 347 342 349 340 324 331 331 305 291 282 287 265 187 235 221 223 237 266 273 234 256 261 269 274 72 353 335 243 271 301 203 256 166 275 288 290 271 252 256 262 270 252
2 3 360 351 352 348 343 321 302 287 273 281 243 307 243 251 206 208 219 224 254 284 219 236 245 176 3 90 236 239 227 263 249 299 186 266 263 277 294 263 243 246 253 262 292
2 358 356 352 353 351 358 357 354 323 245 248 258 253 272 25 173 186 191 217 244 244 233 276 108 233 242 209 235 247 260 262 248 246 307 273 276 282 295 301 271 240 236 259 280
359 355 351 346 334 333 343 340 350 322 295 278 260 249 255 265 289 210 195 212 190 205 235 348 248 250 242 254 239 241 243 255 258 252 285 282 284 272 274 283 286 276 273 272 269
358 352 346 324 331 344 331 355 326 323 287 297 247 229 238 243 246 236 219 218 193 207 223 206 248 274 263 263 259 248 218 236 248 283 306 310 288 307 303 287 294 293 295 290 283
357 349 334 311 295 308 0 352 356 338 12 278 194 227 216 224 258 243 231 212 200 217 230 236 258 265 305 296 289 272 259 249 256 252 264 143 284 260 282 294 287 292 289 290 290
354 343 332 299 275 286 344 327 335 314 337 206 173 199 187 182 173 200 202 203 216 208 153 243 252 264 286 275 286 273 270 247 246 228 170 210 280 166 354 291 283 283 285 289 284
351 342 331 288 262 289 331 320 332 50 265 237 148 182 128 210 240 238 205 221 235 214 224 241 253 179 240 265 276 274 300 297 329 147 251 207 212 267 255 257 270 282 282 288 293
345 342 329 298 255 264 321 357 49 162 294 4 78 121 265 270 255 234 226 206 206 206 248 264 268 267 255 329 328 33 352 317 279 289 269 207 256 270 241 268 250 279 297 301 312
341 338 331 322 191 188 12 67 189 262 300 357 3 350 224 11 348 2 4 264 250 214 259 245 298 77 2 304 255 163 172 196 286 259 302 354 260 266 257 247 280 289 293 261 137
330 338 332 52 144 138 87 98 219 266 329 345 359 345 345 348 39 19 324 255 46 105 221 231 226 264 269 360 19 292 212 237 260 251 248 223 284 303 282 290 332 356 23 295 201
330 332 12 152 158 142 86 232 256 296 309 311 7 272 273 302 314 338 265 268 338 15 136 261 295 88 293 273 264 206 291 317 15 261 250 260 275 248 326 335 337 337 348 22 68
338 332 75 194 183 164 183 233 276 291 324 306 306 286 312 357 327 321 278 315 27 354 1 8 246 319 140 182 235 312 104 60 118 147 258 289 261 223 232 272 286 260 292 228 3
350 325 140 174 208 204 204 207 316 327 348 320 320 213 202 224 249 273 255 283 315 308 295 200 214 243 238 276 283 130 153 128 123 230 226 265 266 263 274 259 277 289 281 261 230
330 288 9 232 255 298 330 323 331 346 334 351 341 11 4 5 333 262 304 334 11 30 13 323 288 321 316 351 351 121 189 180 137 95 207 248 273 273 268 283 301 274 271 264 245
323 325 327 350 45 33 339 295 329 317 314 358 304 20 332 300 205 276 306 302 350 351 37 40 207 197 239 236 201 278 275 247 184 168 242 234 267 280 284 302 294 279 274 274 271
314 292 6 337 355 330 334 285 350 347 344 340 344 359 342 295 291 283 287 310 297 298 78 88 237 268 265 263 274 277 281 280 249 243 241 277 263 266 316 329 326 332 332 311 269
325 354 342 305 307 336 324 333 345 338 343 321 335 329 325 289 252 290 211 202 228 321 84 42 251 330 286 263 266 276 285 282 272 270 261 296 321 346 316 333 327 331 339 2 3
318 322 303 265 296 314 249 321 327 328 313 342 329 331 312 307 287 275 261 238 224 201 176 203 167 164 275 248 298 286 229 282 317 15 296 299 345 336 289 310 300 302 304 325 332